UAL355 KMCI-KDEN

Flight info

Callsign UAL355
Flight time 1h 21m
Altitude 32000
Route WLDCT6 SLN J24 OATHE CLASH5
Aircraft B738/M-SDE2E3FGHIRWXY/LB1

Departure

Time 2026-05-04 10:13
Airport Kansas City International Airport (KMCI)

Arrival

Time 2026-05-04 11:34
Airport Denver International Airport (KDEN)
Time Latitude Longitude Altitude Speed Heading
2026-05-04 09:37 39.30095 -94.72204 1013 ft 0 kts 192°
2026-05-04 10:04 39.30144 -94.72152 1013 ft 1 kts 283°
2026-05-04 10:08 39.30295 -94.72375 1013 ft 13 kts 13°
2026-05-04 10:08 39.30410 -94.72341 1013 ft 21 kts 12°
2026-05-04 10:08 39.30574 -94.72294 1013 ft 26 kts 12°
2026-05-04 10:08 39.30746 -94.72243 1013 ft 25 kts 13°
2026-05-04 10:09 39.30906 -94.72195 1013 ft 23 kts 13°
2026-05-04 10:09 39.31057 -94.72150 1013 ft 22 kts 13°
2026-05-04 10:09 39.31209 -94.72105 1013 ft 23 kts 13°
2026-05-04 10:09 39.31382 -94.72054 1013 ft 27 kts 13°
2026-05-04 10:10 39.31561 -94.72001 1013 ft 26 kts 13°
2026-05-04 10:10 39.31730 -94.71950 1013 ft 24 kts 13°
2026-05-04 10:10 39.31887 -94.71904 1014 ft 23 kts 13°
2026-05-04 10:10 39.32038 -94.71859 1014 ft 22 kts 13°
2026-05-04 10:11 39.32144 -94.71833 1014 ft 10 kts 352°
2026-05-04 10:11 39.32182 -94.71898 1014 ft 10 kts 283°
2026-05-04 10:11 39.32196 -94.71981 1014 ft 9 kts 282°
2026-05-04 10:11 39.32208 -94.72061 1014 ft 7 kts 277°
2026-05-04 10:12 39.32173 -94.72099 1015 ft 7 kts 192°
2026-05-04 10:12 39.32056 -94.72132 1015 ft 43 kts 193°
2026-05-04 10:12 39.31534 -94.72287 1014 ft 109 kts 193°
2026-05-04 10:12 39.30607 -94.72558 1018 ft 161 kts 192°
2026-05-04 10:13 39.29503 -94.72876 1636 ft 162 kts 192°
2026-05-04 10:13 39.28505 -94.73416 2472 ft 153 kts 223°
2026-05-04 10:13 39.27970 -94.74660 2849 ft 176 kts 259°
2026-05-04 10:13 39.28029 -94.76334 3110 ft 198 kts 272°
2026-05-04 10:14 39.28165 -94.78190 3294 ft 219 kts 271°
2026-05-04 10:14 39.28171 -94.80212 3773 ft 229 kts 260°
2026-05-04 10:16 39.26406 -94.94461 9120 ft 245 kts 261°
2026-05-04 10:16 39.26148 -94.96668 9738 ft 255 kts 261°
2026-05-04 10:16 39.25879 -94.98969 10298 ft 265 kts 262°
2026-05-04 10:16 39.25593 -95.01439 10459 ft 291 kts 262°
2026-05-04 10:17 39.25286 -95.04083 10624 ft 313 kts 262°
2026-05-04 10:17 39.24953 -95.06957 10779 ft 334 kts 262°
2026-05-04 10:19 39.22336 -95.29385 14580 ft 375 kts 262°
2026-05-04 10:19 39.21943 -95.32726 15224 ft 379 kts 263°
2026-05-04 10:19 39.21545 -95.36096 15857 ft 382 kts 263°
2026-05-04 10:19 39.21145 -95.39494 16485 ft 385 kts 263°
2026-05-04 10:20 39.20748 -95.42921 17114 ft 388 kts 263°
2026-05-04 10:20 39.20350 -95.46380 17730 ft 392 kts 263°
2026-05-04 10:20 39.19947 -95.49867 18298 ft 395 kts 263°
2026-05-04 10:20 39.19540 -95.53379 18845 ft 397 kts 263°
2026-05-04 10:21 39.19129 -95.56910 19411 ft 399 kts 263°
2026-05-04 10:21 39.18720 -95.60413 19957 ft 401 kts 263°
2026-05-04 10:21 39.18303 -95.63979 20475 ft 404 kts 263°
2026-05-04 10:21 39.17881 -95.67568 20982 ft 406 kts 263°
2026-05-04 10:22 39.17028 -95.74806 21980 ft 410 kts 263°
2026-05-04 10:22 39.16597 -95.78446 22492 ft 412 kts 263°
2026-05-04 10:22 39.16162 -95.82108 22925 ft 415 kts 263°
2026-05-04 10:23 39.15724 -95.85796 23342 ft 418 kts 263°
2026-05-04 10:23 39.15281 -95.89504 23706 ft 420 kts 263°
2026-05-04 10:25 39.11991 -96.15900 26116 ft 433 kts 263°
2026-05-04 10:25 39.11511 -96.19677 26485 ft 433 kts 263°
2026-05-04 10:25 39.11024 -96.23492 26979 ft 430 kts 263°
2026-05-04 10:25 39.10540 -96.27280 27497 ft 428 kts 263°
2026-05-04 10:26 39.10057 -96.31049 27973 ft 426 kts 263°
2026-05-04 10:26 39.09575 -96.34809 28406 ft 426 kts 263°
2026-05-04 10:26 39.09093 -96.38561 28866 ft 424 kts 263°
2026-05-04 10:26 39.08611 -96.42299 29369 ft 423 kts 263°
2026-05-04 10:27 39.08129 -96.46025 29860 ft 421 kts 263°
2026-05-04 10:27 39.07649 -96.49734 30197 ft 421 kts 263°
2026-05-04 10:27 39.07165 -96.53457 30477 ft 422 kts 263°
2026-05-04 10:27 39.06681 -96.57176 30854 ft 421 kts 263°
2026-05-04 10:28 39.06197 -96.60878 31302 ft 418 kts 263°
2026-05-04 10:28 39.05715 -96.64559 31690 ft 417 kts 263°
2026-05-04 10:28 39.05232 -96.68238 31709 ft 416 kts 263°
2026-05-04 10:29 39.04266 -96.75569 31732 ft 416 kts 263°
2026-05-04 10:29 39.03292 -96.82929 31743 ft 418 kts 262°
2026-05-04 10:30 39.02310 -96.90307 31728 ft 419 kts 262°
2026-05-04 10:30 39.01322 -96.97693 31726 ft 419 kts 262°
2026-05-04 10:31 39.00336 -97.05026 31718 ft 419 kts 262°
2026-05-04 10:32 38.96830 -97.30821 31708 ft 418 kts 262°
2026-05-04 10:33 38.95820 -97.38173 31713 ft 418 kts 262°
2026-05-04 10:33 38.94806 -97.45521 31706 ft 418 kts 262°
2026-05-04 10:34 38.93787 -97.52868 31731 ft 417 kts 262°
2026-05-04 10:34 38.92765 -97.60204 31721 ft 417 kts 262°
2026-05-04 10:35 38.92175 -97.67583 31738 ft 415 kts 268°
2026-05-04 10:35 38.91924 -97.74932 31732 ft 414 kts 269°
2026-05-04 10:36 38.91665 -97.82321 31727 ft 414 kts 269°
2026-05-04 10:36 38.91376 -97.89708 31721 ft 414 kts 268°
2026-05-04 10:37 38.91068 -97.97092 31706 ft 414 kts 268°
2026-05-04 10:37 38.90752 -98.04471 31701 ft 414 kts 268°
2026-05-04 10:39 38.89613 -98.30272 31698 ft 415 kts 268°
2026-05-04 10:40 38.89276 -98.37661 31696 ft 415 kts 268°
2026-05-04 10:40 38.88935 -98.45053 31712 ft 415 kts 268°
2026-05-04 10:41 38.88588 -98.52452 31714 ft 415 kts 268°
2026-05-04 10:41 38.88237 -98.59849 31722 ft 415 kts 268°
2026-05-04 10:42 38.87882 -98.67250 31730 ft 415 kts 268°
2026-05-04 10:42 38.87521 -98.74651 31721 ft 416 kts 268°
2026-05-04 10:43 38.87156 -98.82053 31733 ft 416 kts 268°
2026-05-04 10:45 38.85647 -99.11670 31741 ft 417 kts 267°
2026-05-04 10:45 38.85258 -99.19098 31757 ft 417 kts 267°
2026-05-04 10:46 38.84863 -99.26528 31760 ft 418 kts 268°
2026-05-04 10:46 38.84806 -99.33967 31762 ft 417 kts 272°
2026-05-04 10:47 38.84913 -99.41411 31727 ft 417 kts 272°
2026-05-04 10:47 38.85013 -99.48857 31719 ft 418 kts 272°
2026-05-04 10:49 38.85275 -99.78606 31738 ft 418 kts 271°
2026-05-04 10:50 38.85326 -99.86052 31726 ft 417 kts 271°
2026-05-04 10:52 38.85483 -100.15739 31734 ft 416 kts 271°
2026-05-04 10:52 38.85510 -100.23166 31726 ft 416 kts 271°
2026-05-04 10:54 38.85573 -100.52707 31750 ft 413 kts 271°
2026-05-04 10:56 38.85562 -100.81990 31766 ft 410 kts 271°
2026-05-04 10:57 38.85548 -100.89310 31762 ft 411 kts 271°
2026-05-04 10:57 38.85529 -100.96640 31762 ft 411 kts 271°
2026-05-04 10:58 38.85505 -101.03979 31758 ft 412 kts 271°
2026-05-04 10:58 38.85477 -101.11329 31756 ft 412 kts 271°
2026-05-04 10:59 38.85445 -101.18685 31753 ft 413 kts 271°
2026-05-04 10:59 38.85408 -101.25993 31756 ft 413 kts 271°
2026-05-04 11:00 38.85365 -101.33354 31758 ft 412 kts 271°
2026-05-04 11:02 38.85154 -101.62569 31756 ft 408 kts 271°
2026-05-04 11:05 38.84559 -102.16774 31744 ft 404 kts 271°
2026-05-04 11:06 38.84464 -102.23982 31735 ft 404 kts 272°
2026-05-04 11:06 38.84731 -102.27549 31724 ft 402 kts 284°
2026-05-04 11:06 38.85516 -102.30992 31742 ft 402 kts 286°
2026-05-04 11:10 38.95829 -102.78239 31749 ft 404 kts 285°
2026-05-04 11:12 39.01772 -103.06027 31771 ft 403 kts 284°
2026-05-04 11:12 39.03250 -103.12975 31783 ft 403 kts 284°
2026-05-04 11:13 39.04901 -103.19794 31588 ft 405 kts 294°
2026-05-04 11:13 39.06339 -103.22951 30943 ft 409 kts 299°
2026-05-04 11:13 39.07866 -103.26045 30138 ft 410 kts 299°
2026-05-04 11:14 39.09391 -103.29149 29238 ft 411 kts 299°
2026-05-04 11:14 39.10905 -103.32270 28309 ft 411 kts 299°
2026-05-04 11:14 39.12418 -103.35434 27392 ft 421 kts 299°
2026-05-04 11:16 39.23272 -103.58449 22543 ft 417 kts 300°
2026-05-04 11:16 39.24745 -103.61584 22318 ft 401 kts 300°
2026-05-04 11:16 39.26141 -103.64561 22152 ft 386 kts 300°
2026-05-04 11:17 39.27504 -103.67468 21995 ft 372 kts 300°
2026-05-04 11:17 39.28822 -103.70271 21828 ft 360 kts 301°
2026-05-04 11:19 39.38582 -103.88704 19839 ft 354 kts 303°
2026-05-04 11:19 39.39963 -103.91324 19578 ft 350 kts 303°
2026-05-04 11:19 39.41318 -103.93896 19326 ft 343 kts 303°
2026-05-04 11:19 39.42644 -103.96418 19065 ft 336 kts 303°
2026-05-04 11:20 39.43929 -103.98862 18795 ft 322 kts 303°
2026-05-04 11:20 39.45192 -104.01182 18580 ft 311 kts 306°
2026-05-04 11:20 39.46480 -104.03407 18360 ft 308 kts 306°
2026-05-04 11:20 39.47752 -104.05581 18150 ft 306 kts 306°
2026-05-04 11:22 39.56707 -104.21029 16558 ft 307 kts 308°
2026-05-04 11:22 39.58033 -104.23202 16267 ft 308 kts 308°
2026-05-04 11:23 39.59365 -104.25374 16005 ft 308 kts 308°
2026-05-04 11:23 39.60696 -104.27549 15723 ft 308 kts 308°
2026-05-04 11:24 39.68406 -104.40232 14075 ft 289 kts 308°
2026-05-04 11:25 39.69646 -104.42279 13813 ft 287 kts 308°
2026-05-04 11:25 39.70861 -104.44285 13534 ft 286 kts 308°
2026-05-04 11:25 39.72084 -104.46306 13243 ft 283 kts 308°
2026-05-04 11:26 39.75298 -104.49050 12798 ft 282 kts 342°
2026-05-04 11:27 39.88810 -104.52282 11422 ft 272 kts 359°
2026-05-04 11:28 39.90654 -104.52207 11356 ft 257 kts 359°
2026-05-04 11:28 39.92396 -104.52123 11206 ft 245 kts 359°
2026-05-04 11:28 39.94056 -104.52038 10895 ft 241 kts 359°
2026-05-04 11:28 39.95730 -104.51954 10506 ft 241 kts 359°
2026-05-04 11:29 39.97402 -104.51874 10139 ft 240 kts 359°
2026-05-04 11:29 39.99068 -104.51806 9794 ft 239 kts 356°
2026-05-04 11:29 40.00650 -104.52330 9334 ft 237 kts 327°
2026-05-04 11:29 40.01763 -104.53860 8936 ft 234 kts 296°
2026-05-04 11:31 39.98040 -104.65290 7352 ft 192 kts 207°
2026-05-04 11:33 39.89410 -104.65972 6146 ft 162 kts 182°
2026-05-04 11:33 39.88297 -104.65986 5892 ft 158 kts 183°
2026-05-04 11:33 39.87216 -104.66000 5659 ft 154 kts 182°
2026-05-04 11:34 39.86152 -104.66013 5440 ft 153 kts 183°
2026-05-04 11:34 39.85159 -104.66026 5396 ft 119 kts 180°
2026-05-04 11:34 39.84554 -104.66036 5410 ft 56 kts 181°
2026-05-04 11:34 39.84282 -104.66054 5414 ft 36 kts 188°
2026-05-04 11:35 39.84093 -104.66134 5410 ft 20 kts 208°
2026-05-04 11:35 39.84041 -104.66201 5421 ft 9 kts 265°
2026-05-04 11:35 39.84084 -104.66254 5415 ft 10 kts 352°
2026-05-04 11:35 39.84153 -104.66254 5414 ft 10 kts
2026-05-04 11:36 39.84226 -104.66254 5410 ft 12 kts
2026-05-04 11:36 39.84322 -104.66253 5413 ft 17 kts
2026-05-04 11:36 39.84462 -104.66250 5411 ft 23 kts
2026-05-04 11:36 39.84631 -104.66248 5404 ft 25 kts
2026-05-04 11:37 39.84798 -104.66246 5405 ft 24 kts
2026-05-04 11:37 39.84957 -104.66244 5402 ft 23 kts
2026-05-04 11:37 39.85112 -104.66242 5397 ft 22 kts
2026-05-04 11:37 39.85240 -104.66240 5391 ft 12 kts
2026-05-04 11:38 39.85292 -104.66286 5391 ft 10 kts 286°
2026-05-04 11:38 39.85295 -104.66390 5392 ft 14 kts 270°
2026-05-04 11:38 39.85289 -104.66526 5387 ft 13 kts 251°
2026-05-04 11:38 39.85272 -104.66637 5385 ft 13 kts 270°
2026-05-04 11:39 39.85273 -104.66769 5382 ft 16 kts 270°
2026-05-04 11:39 39.85274 -104.66928 5382 ft 19 kts 270°
2026-05-04 11:40 39.85335 -104.67464 5382 ft 1 kts
2026-05-04 11:41 39.85336 -104.67464 5382 ft 0 kts 360°